weather.gov     
National Weather Service

Regional Weather Roundup
NWS Homepage
This page is being discontinued on March 12, 2014.
The same data is available at this site. Please update your bookmarks.
Thank you, and we apologize for the inconvenience.
Please send an email to SR-SRH.Webmaster@noaa.gov with any concerns.


Current Version
Previous Version:    01  02  03  04  05  06  07  08  09  10  11  12  13  14  15  16  17  18  19  20  21  22  23  24  25  26  27  28  29  30  
   31  32  33  34  35  36  37  38  39  40  41  42  43  44  45  46  47  48  49  50  51  52  53  
[Printable]
874
ASUS43 KOAX 161910
RWRNE

WEATHER ROUNDUP FOR NEBRASKA
NATIONAL WEATHER SERVICE OMAHA NE
200 PM CDT WED APR 16 2014

NOTES: SATELLITE DATA IS BEING USED TO AUGMENT CLOUD COVER ABOVE
       12000 FEET.
       "FAIR" INDICATES FEW OR NO CLOUDS BELOW 12,000 FEET WITH NO
       SIGNIFICANT WEATHER AND/OR OBSTRUCTIONS TO VISIBILITY.

  * THESE STATIONS DO NOT REPORT WEATHER SUCH AS RAIN...SNOW OR FOG.

NEZ001>004-019>022-054>056-162000-
NEBRASKA PANHANDLE

CITY           SKY/WX    TMP DP  RH WIND       PRES   REMARKS
SCOTTSBLUFF    PTSUNNY   53  24  32 NW25G35   29.93R
ALLIANCE       CLOUDY    44  35  70 N24G32    29.92R
CHADRON        CLOUDY    43  37  79 NE15      29.96R
KIMBALL        PTSUNNY   47  21  36 N23G32    29.92R
SIDNEY         PTSUNNY   53  25  33 N30G39    29.92R
$$

NEZ057>060-069>072-079>082-162000-
SOUTHWEST NEBRASKA

CITY           SKY/WX    TMP DP  RH WIND       PRES   REMARKS
NORTH PLATTE   CLOUDY    50  34  54 N24G33    29.88R
IMPERIAL       PTSUNNY   55  34  45 N23G35    29.89R
LEXINGTON      MOSUNNY   53  37  55 N26G35    29.83R
MCCOOK         PTSUNNY   58  35  42 N28G39    29.84R
OGALLALA       CLOUDY    50  34  53 N23G29    29.90R
$$

NEZ005>010-023>029-035>040-094-162000-
NORTH CENTRAL NEBRASKA

CITY           SKY/WX    TMP DP  RH WIND       PRES   REMARKS
VALENTINE      CLOUDY    34  29  82 N22G29    29.93R WCI  22
AINSWORTH      CLOUDY    36  31  84 NW24G31   29.89R WCI  24
BROKEN BOW     CLOUDY    45  35  68 NW26G36   29.83R
O`NEILL        CLOUDY    36  28  74 NW31G39   29.82R WCI  23
ORD            CLOUDY    43  31  62 NW30G40   29.81R
THEDFORD       CLOUDY    45  34  66 NW23      29.89R
$$

NEZ041-046>049-061>064-073>077-083>087-162000-
SOUTH CENTRAL NEBRASKA

CITY           SKY/WX    TMP DP  RH WIND       PRES   REMARKS
GRAND ISLAND   PTSUNNY   56  36  47 NW25G39   29.75R
AURORA         MOSUNNY   60  36  41 NW25G32   29.72R
HASTINGS       PTSUNNY   57  37  47 NW22G31   29.76R
HEBRON         PTSUNNY   66  30  26 W14G23    29.72S
HOLDREGE       PTSUNNY   55  38  52 NW21G29   29.80R
KEARNEY *      PTSUNNY   54  36  50 NW25G33   29.80R
YORK           SUNNY     63  37  39 W23       29.71R
$$

NEZ011>018-030>034-042>045-162000-
NORTHEAST NEBRASKA

CITY           SKY/WX    TMP DP  RH WIND       PRES   REMARKS
NORFOLK        PTSUNNY   52  32  46 NW22G36   29.70R
ALBION         PTSUNNY   44  33  66 NW31      29.76R
BLAIR          PTSUNNY   65  26  23 S31G40    29.68S
COLUMBUS *     PTSUNNY   59  36  41 NW20G30   29.71R
FREMONT        PTSUNNY   64  25  22 SW21G28   29.69S
TEKAMAH        PTSUNNY   65  26  23 S24G38    29.67F
$$

NEZ050>053-065>068-078-088>093-162000-
SOUTHEAST NEBRASKA

CITY           SKY/WX    TMP DP  RH WIND       PRES   REMARKS
LINCOLN        PTSUNNY   68  25  19 SW23G32   29.70F
OMAHA EPPLEY   PTSUNNY   65  26  23 S25G43    29.69F
BEATRICE       PTSUNNY   67  27  22 SW23G29   29.71F
NEBRASKA CITY  CLOUDY    66  28  23 SW30G44   29.73S
PLATTSMOUTH    PTSUNNY   66  23  19 S30G37    29.70F
$$

NEZ044-045-051>053-067-162000-
OMAHA AREA

CITY           SKY/WX    TMP DP  RH WIND       PRES   REMARKS
OMAHA EPPLEY   PTSUNNY   65  26  23 S25G43    29.69F
BLAIR          PTSUNNY   65  26  23 S31G40    29.68S
FREMONT        PTSUNNY   64  25  22 SW21G28   29.69S
MILLARD        PTSUNNY   64  26  23 SW15G31   29.69S
OFFUTT AFB     PTSUNNY   66  29  24 S20G32    29.68F
PLATTSMOUTH    PTSUNNY   66  23  19 S30G37    29.70F
WAHOO          FAIR      65  24  20 SW22G28   29.68F
$$




U.S. Dept. of Commerce
NOAA National Weather Service
1325 East West Highway
Silver Spring, MD 20910
E-mail: w-nws.webmaster@noaa.gov
Page last modified: May 16, 2007
NATIONAL WEATHER SERVICE: for Safety, for Work, for Fun - FOR LIFE